Waarnemingen

Advertentie
Mijn weer
Llanes, Spanje (8016): temperatuur & dauwpunt: 14.01.2021 23:00:00 - 20.01.2021 23:00:00 (CET)Llanes, Spanje (8016): windsnelheid & windstoten: 14.01.2021 23:00:00 - 20.01.2021 23:00:00 (CET)Llanes, Spanje (8016): windrichting: 14.01.2021 23:00:00 - 20.01.2021 23:00:00 (CET)Llanes, Spanje (8016): luchtdruk: 14.01.2021 23:00:00 - 20.01.2021 23:00:00 (CET)Llanes, Spanje (8016): zicht: 14.01.2021 23:00:00 - 20.01.2021 23:00:00 (CET)Llanes, Spanje (8016): Zonneschijnduur: 14.01.2021 23:00:00 - 20.01.2021 23:00:00 (CET)Llanes, Spanje (8016): neerslag: 14.01.2021 23:00:00 - 20.01.2021 23:00:00 (CET)
Datum & Tijd tt [°C] td [°C] ff [km/u] ff [kn] fx [km/u] fx [kn] dd ppp [hPa] vv [km] sd [min] rr [mm]
20.01.2021 23:00:00 12,0 5,6 3 1 16 9 WZW 1001,0 20 0 0,0
20.01.2021 22:00:00 13,5 6,5 3 2 10 6 N 1000,3 20 0 0,0
20.01.2021 21:00:00 13,8 6,4 5 3 16 9 ZZO 999,4 20 0 0,0
20.01.2021 20:00:00 14,2 7,0 11 6 24 13 NO 998,8 20 0 0,0
20.01.2021 19:00:00 14,4 4,3 6 3 18 10 ZW 997,6 20 0 -
20.01.2021 18:00:00 15,7 3,8 3 2 12 6 N 996,6 20 0 0,0
20.01.2021 17:00:00 16,1 4,1 4 2 14 7 ZW 995,9 20 0 0,0
20.01.2021 16:00:00 15,7 5,6 10 5 20 11 O 995,3 20 0 0,0
20.01.2021 15:00:00 16,5 4,8 5 3 42 23 ONO 995,0 20 22 0,0
20.01.2021 14:00:00 17,1 2,3 8 4 18 10 W 995,0 20 3 0,0
20.01.2021 13:00:00 16,5 2,9 10 5 26 14 OZO 995,7 20 17 -
20.01.2021 12:00:00 15,9 3,4 7 4 24 13 ZZO 997,0 20 23 0,0
20.01.2021 11:00:00 16,6 2,3 9 5 19 10 ZW 997,1 20 41 0,0
20.01.2021 10:00:00 15,7 0,2 8 4 28 15 NNO 996,8 20 10 0,0
20.01.2021 09:00:00 16,8 0,0 14 8 46 25 Z 997,8 20 0 0,0
20.01.2021 08:00:00 15,3 -0,5 15 8 44 24 OZO 998,5 20 0 0,0
20.01.2021 07:00:00 12,7 -0,3 5 3 17 9 Z 999,8 20 0 -
20.01.2021 06:00:00 12,6 0,0 7 4 20 11 ZZW 1001,1 20 0 0,0
20.01.2021 05:00:00 11,7 1,3 4 2 19 10 ZW 1001,7 20 0 0,0
20.01.2021 04:00:00 12,3 -2,0 7 4 21 11 ZZW 1002,8 20 0 0,0
20.01.2021 03:00:00 11,6 0,4 10 5 13 7 ZW 1003,6 20 0 0,0
20.01.2021 02:00:00 11,8 0,9 1 1 10 6 ONO 1004,5 20 0 0,0
20.01.2021 01:00:00 12,9 -2,7 5 3 18 10 ZO 1005,7 20 0 -
20.01.2021 00:00:00 13,4 -3,0 4 2 16 9 ZZW 1006,4 20 0 0,0
19.01.2021 23:00:00 13,2 -2,0 14 8 21 11 W 1007,7 20 0 0,0
19.01.2021 22:00:00 13,1 -1,0 8 5 18 10 WZW 1008,6 20 0 0,0
19.01.2021 21:00:00 13,3 0,6 6 4 18 10 Z 1009,2 20 0 0,0
19.01.2021 20:00:00 12,0 5,6 5 3 21 11 ZO 1010,5 20 0 0,0
19.01.2021 19:00:00 12,0 3,4 4 2 13 7 O 1010,8 20 0 -
19.01.2021 18:00:00 13,0 4,6 3 1 11 6 O 1011,6 20 0 0,0
19.01.2021 17:00:00 13,5 5,9 5 3 14 8 W 1012,0 20 0 0,0
19.01.2021 16:00:00 13,7 7,3 5 3 13 7 NNO 1012,3 20 1 0,0
19.01.2021 15:00:00 14,1 8,1 3 2 6 4 N 1014,2 20 26 0,0
19.01.2021 14:00:00 14,9 5,6 3 2 10 5 NNO 1015,1 20 45 0,0
19.01.2021 13:00:00 13,6 6,4 2 1 5 3 NNO 1016,2 20 48 -
19.01.2021 12:00:00 14,4 7,0 3 2 6 4 ONO 1017,1 20 35 0,0
19.01.2021 11:00:00 11,9 4,8 4 2 11 6 WZW 1017,8 20 59 0,0
19.01.2021 10:00:00 8,0 3,4 5 3 14 8 ZZW 1018,1 20 43 0,0
19.01.2021 09:00:00 6,9 2,9 7 4 10 5 ZZW 1018,7 20 0 0,0
19.01.2021 08:00:00 5,9 2,1 6 4 14 7 ZZW 1019,2 20 0 0,0
19.01.2021 07:00:00 6,3 3,0 5 3 17 9 WZW 1019,8 20 0 -
19.01.2021 06:00:00 6,0 3,0 7 4 16 9 ZW 1019,8 20 0 0,0
19.01.2021 05:00:00 6,6 4,1 3 2 12 6 OZO 1020,3 20 0 0,0
19.01.2021 04:00:00 6,4 4,1 3 1 13 7 Z 1021,1 20 0 0,0
19.01.2021 03:00:00 6,7 4,5 5 3 10 6 ZW 1021,8 20 0 0,0
19.01.2021 02:00:00 7,0 5,0 8 4 11 6 ZW 1022,5 20 0 0,0
19.01.2021 01:00:00 7,4 5,3 8 5 11 6 ZW 1023,1 20 0 -
19.01.2021 00:00:00 7,3 5,1 11 6 14 8 ZW 1023,4 20 0 0,0
18.01.2021 23:00:00 8,1 5,9 9 5 11 6 ZZW 1023,7 20 0 0,0
18.01.2021 22:00:00 8,7 6,2 9 5 12 7 ZW 1024,1 20 0 0,0
18.01.2021 21:00:00 8,9 6,2 5 3 8 4 ZW 1024,5 13 0 0,0
18.01.2021 20:00:00 10,1 7,1 3 1 7 4 ZZO 1025,1 19 0 0,0
18.01.2021 19:00:00 11,2 8,1 7 4 23 12 OZO 1025,5 8 0 -
18.01.2021 18:00:00 11,3 8,1 16 8 21 11 O 1025,6 20 0 0,0
18.01.2021 17:00:00 11,6 8,4 11 6 17 9 O 1025,9 20 0 0,0
18.01.2021 16:00:00 11,9 8,9 9 5 11 6 O 1026,3 10 0 0,0
18.01.2021 15:00:00 11,9 9,0 5 3 10 5 O 1026,6 19 0 0,0
18.01.2021 14:00:00 12,1 9,4 7 4 9 5 ONO 1027,2 20 0 0,0
18.01.2021 13:00:00 11,9 9,7 6 4 12 6 ONO 1027,9 20 12 -
18.01.2021 12:00:00 11,3 9,4 8 5 17 9 O 1028,7 19 0 0,0
18.01.2021 11:00:00 10,7 8,8 12 6 16 9 O 1028,7 11 0 0,2
18.01.2021 10:00:00 10,6 8,9 7 4 17 9 ONO 1028,8 7 0 0,0
18.01.2021 09:00:00 10,7 8,8 2 1 7 4 WNW 1028,7 20 0 0,2
18.01.2021 08:00:00 10,7 8,8 4 2 9 5 ZW 1029,0 5 0 0,0
18.01.2021 07:00:00 10,7 8,8 5 3 12 6 WZW 1028,7 20 0 -
18.01.2021 06:00:00 10,7 8,9 5 3 13 7 WZW 1028,5 20 0 0,0
18.01.2021 05:00:00 10,8 9,0 5 3 - - WZW 1028,6 19 0 0,0
18.01.2021 04:00:00 11,0 9,0 8 5 16 8 WNW 1028,9 7 0 0,0
18.01.2021 03:00:00 11,3 9,4 11 6 20 11 W 1028,9 6 0 0,2
18.01.2021 02:00:00 11,2 9,3 7 4 14 8 W 1028,8 20 0 0,0
18.01.2021 01:00:00 11,3 9,4 8 5 16 9 W 1029,4 20 0 -
18.01.2021 00:00:00 11,4 9,3 7 4 11 6 W 1029,8 2,4 0 0,4
17.01.2021 23:00:00 11,6 9,2 7 4 15 8 W 1029,5 3,1 0 0,2
17.01.2021 22:00:00 11,7 8,9 - - - - - 1029,7 6 0 0,0
17.01.2021 21:00:00 12,0 9,0 7 4 15 8 W 1029,7 10 0 0,0
17.01.2021 20:00:00 12,2 8,8 6 3 23 12 W 1030,0 17 0 0,0
17.01.2021 19:00:00 13,2 8,5 19 10 29 16 WNW 1029,6 20 0 -
17.01.2021 18:00:00 13,8 8,0 8 4 21 12 W 1029,2 20 0 0,0
17.01.2021 17:00:00 14,3 7,8 11 6 19 10 W 1029,0 20 0 0,0
17.01.2021 16:00:00 14,0 7,7 12 6 25 13 W 1029,1 20 0 0,0
17.01.2021 15:00:00 13,9 7,4 14 8 27 15 WNW 1029,1 20 1 0,0
17.01.2021 14:00:00 15,0 7,8 8 5 21 11 W 1029,3 20 0 0,0
17.01.2021 13:00:00 15,2 6,2 13 7 21 11 W 1029,8 20 0 -
17.01.2021 12:00:00 14,5 6,5 10 5 19 11 W 1030,4 20 0 0,0
17.01.2021 11:00:00 13,2 6,1 9 5 22 12 WZW 1030,3 20 0 0,0
17.01.2021 10:00:00 12,3 6,1 13 7 24 13 W 1030,0 20 0 0,0
17.01.2021 09:00:00 10,9 5,5 9 5 21 11 WZW 1029,5 20 0 0,0
17.01.2021 08:00:00 11,1 5,5 9 5 27 15 WZW 1029,5 20 0 0,0
17.01.2021 07:00:00 10,9 5,8 12 6 21 11 W 1029,4 20 0 -
17.01.2021 06:00:00 8,6 1,3 7 4 14 8 ZW 1029,2 20 0 0,0
17.01.2021 05:00:00 8,6 1,7 8 4 14 8 WZW 1028,7 20 0 0,0
17.01.2021 04:00:00 9,0 1,9 8 4 13 7 ZZW 1029,1 20 0 0,0
17.01.2021 03:00:00 8,7 0,9 8 4 13 7 ZW 1029,1 20 0 0,0
17.01.2021 02:00:00 9,2 0,6 9 5 13 7 ZZW 1029,3 20 0 0,0
17.01.2021 01:00:00 8,2 0,9 8 4 12 6 ZZW 1029,3 20 0 -
17.01.2021 00:00:00 7,2 1,7 4 2 17 9 ZZW 1029,3 20 0 0,0
16.01.2021 23:00:00 7,6 2,7 4 2 14 8 W 1029,5 20 0 0,0
16.01.2021 22:00:00 8,4 3,6 8 5 11 6 ZZW 1029,8 17 0 0,0
16.01.2021 21:00:00 8,5 4,6 8 4 11 6 Z 1030,1 20 0 0,0
16.01.2021 20:00:00 8,6 4,5 9 5 13 7 ZZW 1030,1 20 0 0,0
16.01.2021 19:00:00 8,7 4,1 10 6 14 7 ZZW 1030,0 20 0 -
16.01.2021 18:00:00 10,7 5,0 6 3 8 4 ZZW 1029,1 14 0 0,0
16.01.2021 17:00:00 10,9 4,8 5 3 9 5 NW 1028,8 20 0 0,0
16.01.2021 16:00:00 11,5 4,6 - - - - - 1028,9 20 12 0,0
16.01.2021 15:00:00 12,7 5,8 9 5 18 10 WNW 1029,0 20 60 0,0
16.01.2021 14:00:00 11,8 4,8 - - - - - 1029,6 20 60 0,0
16.01.2021 13:00:00 11,2 3,4 8 4 12 7 WNW 1029,9 20 52 -
16.01.2021 12:00:00 10,8 3,0 7 4 11 6 WNW 1030,8 20 31 0,0
16.01.2021 11:00:00 9,5 3,9 2 1 11 6 NNW 1030,2 19 60 0,0
16.01.2021 10:00:00 5,8 1,7 10 5 15 8 ZZW 1029,9 20 42 0,0
16.01.2021 09:00:00 4,1 0,9 11 6 16 9 ZW 1029,6 20 0 0,0
16.01.2021 08:00:00 4,7 1,3 4 2 13 7 ZZW 1029,7 20 0 0,0
16.01.2021 07:00:00 4,3 1,1 6 3 13 7 ZW 1029,6 20 0 -
16.01.2021 06:00:00 4,2 0,9 6 4 14 7 ZW 1029,7 20 0 0,0
16.01.2021 05:00:00 5,3 1,9 11 6 14 8 ZW 1029,9 20 0 0,0
16.01.2021 04:00:00 5,1 1,7 8 5 14 8 ZW 1030,3 20 0 0,0
16.01.2021 03:00:00 5,0 1,5 6 3 9 5 ZW 1030,3 20 0 0,0
16.01.2021 02:00:00 5,6 2,1 5 3 12 7 ZZW 1030,4 20 0 0,0
16.01.2021 01:00:00 5,8 2,5 9 5 13 7 ZW 1030,4 20 0 -
16.01.2021 00:00:00 5,9 2,3 2 1 5 3 ZZO 1030,8 20 0 0,0
15.01.2021 23:00:00 6,1 2,7 2 1 7 4 W 1031,1 20 0 0,0
15.01.2021 22:00:00 6,7 3,4 3 1 14 7 ZO 1031,2 20 0 0,0
15.01.2021 21:00:00 7,1 3,9 10 5 - - ZW 1031,4 20 0 0,0
15.01.2021 20:00:00 7,8 4,3 5 3 10 5 ZZW 1031,1 20 0 0,0
15.01.2021 19:00:00 9,6 5,6 8 4 10 5 ZZW 1031,3 20 0 -
15.01.2021 18:00:00 10,8 6,1 4 2 6 3 Z 1030,9 20 0 0,0
15.01.2021 17:00:00 11,5 6,4 3 1 8 4 NNW 1030,7 14 0 0,0
15.01.2021 16:00:00 12,2 6,7 5 3 10 5 WNW 1031,0 20 0 0,0
15.01.2021 15:00:00 11,6 6,1 4 2 11 6 NW 1030,6 20 19 0,0
15.01.2021 14:00:00 12,8 7,0 5 3 8 5 NNW 1031,0 20 24 0,0
15.01.2021 13:00:00 12,6 6,4 5 3 14 7 W 1032,2 20 44 -
15.01.2021 12:00:00 13,1 5,9 4 2 13 7 W 1032,9 20 30 0,0
15.01.2021 11:00:00 10,2 5,6 6 3 9 5 ZW 1032,3 20 43 0,0
15.01.2021 10:00:00 8,7 4,5 6 4 16 9 ZZW 1031,8 20 30 0,0
15.01.2021 09:00:00 7,9 3,9 9 5 13 7 ZZW 1031,6 20 0 0,0
15.01.2021 08:00:00 8,0 4,5 8 4 11 6 ZW 1031,2 20 0 0,0
15.01.2021 07:00:00 7,7 4,3 5 3 13 7 ZW 1031,0 20 0 -
15.01.2021 06:00:00 8,1 4,6 5 3 8 4 WZW 1030,8 20 0 0,0
15.01.2021 05:00:00 8,8 5,8 - - - - - 1030,8 20 0 0,0
15.01.2021 04:00:00 9,4 6,8 5 3 13 7 WZW 1031,3 20 0 0,0
15.01.2021 03:00:00 9,8 7,3 8 4 15 8 W 1031,1 20 0 0,0
15.01.2021 02:00:00 10,0 7,6 8 4 14 8 W 1030,9 20 0 0,0
15.01.2021 01:00:00 10,2 7,6 6 4 18 10 WZW 1030,9 20 0 -
15.01.2021 00:00:00 10,4 8,0 8 4 14 8 W 1030,7 20 0 0,0
14.01.2021 23:00:00 10,6 8,1 7 4 19 10 WZW 1030,7 20 0 0,2

tt = temperatuur
td = dauwpunt
ff = windsnelheid
fx = windstoten
dd = windrichting
ppp = luchtdruk
vv = zicht
sd = Zonneschijnduur
rr = neerslag

Weerstations in de omgeving